M0JGD Weather Reports


Display with metric or nautical units.
time (UTC)temp
F
wind
direction
speed
MPH
gust
MPH
rain 1hr
in
rain 24hr
in
rain mn
in
humidity
%
barometer
mb
20260505163055 61 98 0.0 2.0 0.00 0.00 0.00 50 1009.1
20260505161559 61 0 0.0 2.0 0.00 0.00 0.00 49 1009.0
20260505153120 61 99 0.0 3.0 0.00 0.00 0.00 50 1009.1
20260505151600 61 0 0.0 1.0 0.00 0.00 0.00 50 1009.0
20260505140104 64 80 0.0 3.0 0.00 0.00 0.00 45 1009.2
20260505124609 65 0 1.0 4.0 0.00 0.00 0.00 51 1009.5
20260505123102 64 90 0.0 3.0 0.00 0.00 0.00 53 1009.5
20260505121611 62 69 0.0 3.0 0.00 0.00 0.00 55 1009.6
20260505120107 60 94 0.0 4.0 0.00 0.00 0.00 59 1009.7
20260505114557 61 64 0.0 2.0 0.00 0.00 0.00 60 1009.8
20260505113113 60 0 0.0 3.0 0.00 0.00 0.00 60 1009.7
20260505111552 60 84 0.0 3.0 0.00 0.00 0.00 62 1009.7
20260505101557 59 5 0.0 3.0 0.00 0.00 0.00 63 1009.9
20260505100057 59 0 1.0 4.0 0.00 0.00 0.00 65 1010.0
20260505094554 59 86 1.0 6.0 0.00 0.00 0.00 63 1010.0
20260505093105 58 98 1.0 10.0 0.00 0.00 0.00 63 1010.1
20260505091554 58 0 0.0 3.0 0.00 0.00 0.00 66 1010.3
20260505090056 57 0 2.0 6.0 0.00 0.00 0.00 66 1010.3
20260505084556 57 0 1.0 4.0 0.00 0.00 0.00 67 1010.3
20260505083104 56 78 1.0 4.0 0.00 0.00 0.00 68 1010.3
20260505081559 56 59 0.0 3.0 0.00 0.00 0.00 70 1010.3
20260505080108 55 0 1.0 5.0 0.00 0.00 0.00 72 1010.4
20260505074554 55 59 1.0 3.0 0.00 0.00 0.00 78 1010.4
20260505073100 54 0 0.0 3.0 0.00 0.00 0.00 81 1010.4
20260505071554 54 57 0.0 0.0 0.00 0.00 0.00 84 1010.3
20260505070058 53 0 0.0 3.0 0.00 0.00 0.00 86 1010.4
20260505064601 52 345 0.0 1.0 0.00 0.00 0.00 87 1010.4
20260505063102 51 0 0.0 2.0 0.00 0.00 0.00 87 1010.7
20260505061600 51 0 0.0 0.0 0.00 0.00 0.00 88 1010.8
20260505060100 51 0 0.0 2.0 0.00 0.00 0.00 89 1010.7
20260505054556 51 0 0.0 0.0 0.00 0.00 0.00 89 1010.6
20260505053115 51 0 0.0 0.0 0.00 0.00 0.00 90 1010.7
20260505051555 51 0 0.0 0.0 0.00 0.00 0.00 90 1010.5
20260505050107 50 0 0.0 0.0 0.00 0.00 0.00 90 1010.4
20260505041555 51 0 0.0 2.0 0.00 0.00 0.00 90 1010.7
20260505040057 51 0 0.0 0.0 0.00 0.00 0.00 90 1010.8
20260505034615 51 0 0.0 2.0 0.00 0.00 0.00 90 1011.1
20260505033055 51 0 0.0 0.0 0.00 0.00 0.00 90 1011.1
20260505031556 51 0 0.0 0.0 0.00 0.00 0.00 90 1011.2
20260505030054 51 0 0.0 0.0 0.00 0.00 0.00 90 1011.2
20260505024554 51 0 0.0 0.0 0.00 0.00 0.00 90 1011.1
20260505023055 51 0 0.0 0.0 0.00 0.00 0.00 90 1011.0
20260505021553 51 0 0.0 0.0 0.00 0.00 0.00 90 1011.1
20260505020058 52 0 0.0 0.0 0.00 0.00 0.00 90 1011.2
20260505014556 52 0 0.0 0.0 0.00 0.00 0.00 90 1011.2
20260505013055 52 0 0.0 0.0 0.00 0.00 0.00 90 1011.4
20260505011609 52 0 0.0 0.0 0.00 0.00 0.00 90 1011.6
20260505010056 52 0 0.0 0.0 0.00 0.00 0.00 90 1011.5
20260505004605 52 0 0.0 0.0 0.00 0.00 0.00 90 1011.7
20260505003057 52 0 0.0 0.0 0.00 0.00 0.00 90 1011.8
20260505001617 53 0 0.0 0.0 0.00 0.00 0.00 90 1012.0
20260505000107 53 0 0.0 0.0 0.00 0.00 0.00 90 1012.2
20260504234557 53 0 0.0 0.0 0.00 0.00 0.00 90 1012.0
20260504233110 53 0 0.0 0.0 0.00 0.00 0.00 90 1012.0
20260504231555 53 0 0.0 0.0 0.00 0.00 0.00 90 1011.9
20260504230056 53 0 0.0 0.0 0.00 0.00 0.00 91 1011.8
20260504224553 53 0 0.0 0.0 0.00 0.00 0.00 91 1011.9
20260504223053 53 0 0.0 0.0 0.00 0.00 0.00 91 1012.2
20260504221555 53 0 0.0 0.0 0.00 0.00 0.00 91 1012.2
20260504220101 53 0 0.0 0.0 0.00 0.00 0.00 91 1012.3
20260504214600 53 0 0.0 0.0 0.00 0.00 0.00 90 1012.3
20260504213054 53 0 0.0 0.0 0.00 0.00 0.00 90 1012.1
20260504211552 53 0 0.0 0.0 0.00 0.00 0.00 90 1012.2
20260504210059 53 0 0.0 0.0 0.00 0.00 0.00 90 1012.3
20260504204557 53 0 0.0 0.0 0.00 0.00 0.00 90 1012.4
20260504203058 52 0 0.0 0.0 0.00 0.00 0.00 89 1012.3
20260504201600 53 0 0.0 0.0 0.00 0.00 0.00 88 1012.1
20260504200101 53 0 0.0 0.0 0.00 0.00 0.00 88 1012.0
20260504194604 54 0 0.0 0.0 0.00 0.00 0.00 88 1011.9
20260504193102 54 0 0.0 0.0 0.00 0.00 0.00 87 1011.8
20260504191611 55 0 0.0 0.0 0.00 0.00 0.00 86 1011.7
20260504190057 56 0 0.0 0.0 0.00 0.00 0.00 86 1011.6
20260504184557 57 0 0.0 0.0 0.00 0.00 0.00 85 1011.4
20260504183057 57 0 0.0 0.0 0.00 0.00 0.00 85 1011.5
20260504181609 57 0 0.0 0.0 0.00 0.00 0.00 84 1011.4
20260504180100 58 0 0.0 0.0 0.00 0.00 0.00 83 1011.4
20260504174555 59 0 0.0 0.0 0.00 0.00 0.00 82 1011.3
20260504173054 60 0 0.0 0.0 0.00 0.00 0.00 80 1011.3
20260504171558 60 0 0.0 0.0 0.00 0.00 0.00 79 1011.3